TimePST,TemperatureF,Dew PointF,Humidity,Sea Level PressureIn,VisibilityMPH,Wind Direction,Wind SpeedMPH,Gust SpeedMPH,PrecipitationIn,Events,Conditions,WindDirDegrees,DateUTC
12:53 AM,63.0,36.0,37,29.88,10.0,Calm,Calm,-,N/A,,Clear,0,2013-03-04 08:53:00
1:53 AM,60.1,37.0,42,29.88,10.0,SE,3.5,-,N/A,,Clear,140,2013-03-04 09:53:00
2:53 AM,59.0,37.9,46,29.86,10.0,Calm,Calm,-,N/A,,Clear,0,2013-03-04 10:53:00
3:53 AM,59.0,39.0,48,29.89,10.0,Calm,Calm,-,N/A,,Clear,0,2013-03-04 11:53:00
4:53 AM,57.9,43.0,58,29.91,10.0,WNW,11.5,26.5,N/A,,Clear,300,2013-03-04 12:53:00
5:53 AM,57.9,43.0,58,29.93,10.0,NW,12.7,21.9,N/A,,Clear,310,2013-03-04 13:53:00
6:53 AM,59.0,42.1,53,29.96,10.0,Calm,Calm,-,N/A,,Clear,0,2013-03-04 14:53:00
7:53 AM,60.1,43.0,53,29.98,10.0,SW,3.5,-,N/A,,Clear,230,2013-03-04 15:53:00
8:53 AM,66.0,41.0,40,29.98,10.0,NNW,15.0,-,N/A,,Clear,330,2013-03-04 16:53:00
9:53 AM,70.0,39.0,32,29.98,10.0,Calm,Calm,-,N/A,,Clear,0,2013-03-04 17:53:00
10:53 AM,72.0,39.9,31,29.99,10.0,NNW,6.9,-,N/A,,Clear,340,2013-03-04 18:53:00
11:53 AM,75.0,37.0,25,29.96,10.0,Calm,Calm,-,N/A,,Clear,0,2013-03-04 19:53:00
12:53 PM,77.0,37.0,24,29.94,10.0,WNW,6.9,-,N/A,,Clear,290,2013-03-04 20:53:00
1:53 PM,79.0,37.9,23,29.92,10.0,NW,8.1,-,N/A,,Partly Cloudy,320,2013-03-04 21:53:00
2:53 PM,80.1,41.0,25,29.92,10.0,NW,11.5,-,N/A,,Clear,310,2013-03-04 22:53:00
3:53 PM,79.0,41.0,26,29.92,10.0,NW,10.4,-,N/A,,Scattered Clouds,320,2013-03-04 23:53:00
4:53 PM,77.0,41.0,28,29.93,10.0,NW,12.7,-,N/A,,Scattered Clouds,320,2013-03-05 00:53:00
5:53 PM,73.9,42.1,32,29.95,10.0,NW,12.7,-,N/A,,Scattered Clouds,320,2013-03-05 01:53:00
6:53 PM,73.0,43.0,34,29.97,10.0,NW,11.5,-,N/A,,Clear,320,2013-03-05 02:53:00
7:53 PM,68.0,45.0,43,29.99,10.0,NNE,6.9,-,N/A,,Clear,30,2013-03-05 03:53:00
8:53 PM,66.9,44.1,44,30.00,10.0,NW,6.9,-,N/A,,Clear,310,2013-03-05 04:53:00
9:53 PM,63.0,44.1,50,30.01,10.0,Calm,Calm,-,N/A,,Clear,0,2013-03-05 05:53:00
11:53 PM,60.1,45.0,57,30.02,10.0,Calm,Calm,-,N/A,,Clear,0,2013-03-05 07:53:00